User: anonymous   Login
Location: Unspecified
(0.0000°N, 0.0000°E)
Time: 21:58:17
(UTC+00:00)
Language:

Envisat - Orbit

View from above orbital plane
View from above orbital plane
View from above satellite
View from above satellite

Ground track
Ground track

The orbit data is extracted from the following two-line orbital elements,

1 27386U 02009A   17328.43447468  .00000018  00000-0  19649-4 0  9990
2 27386  98.2120   6.8585 0001468  85.7629 274.3726 14.37909336824109
Epoch (UTC): 24 November 2017 10:25:38
Eccentricity: 0.0001468
inclination: 98.2120°
perigee height: 764 km
apogee height: 766 km
right ascension of ascending node: 6.8585°
argument of perigee: 85.7629°
revolutions per day: 14.37909336
mean anomaly at epoch: 274.3726°
orbit number at epoch: 82410

The dashed part of the orbit path shows where the satellite is in the earth's shadow,  

DLR